Location: Bukit Lungun
(2.6833°N, 113.9667°E)
Time: 11:42:12
(UTC+00:00)

Cosmos 2333 Rocket - Pass Details

Date: 02 March 2021
Orbit: 837 x 864 km, 70.8° (Epoch: 20 April)

Event Time Altitude Azimuth Distance (km) Brightness Sun altitude
Rises 11:59:25 0° 212° (SSW) 3,383 5.9 -21.0°
Reaches altitude 10° 12:02:02 10° 220° (SW) 2,448 5.2 -21.6°
Maximum altitude 12:07:07 36° 286° (WNW) 1,300 3.7 -22.9°
Drops below altitude 10° 12:12:15 10° 352° (N) 2,451 4.6 -24.1°
Sets 12:14:52 0° 0° (N) 3,387 5.3 -24.8°
